Lapse_Rate
-1.1 -1.7 -1.7 -1.6 -1.7 -1.8 -1.7 -1.7 -1.8 -1.9 -2.2 -2.4 -2.8 -3.2 -3.7 -4.1 -4.0 0.4 4.0 6.1 5.3 5.0 2.7 6.3 7.5 7.8 7.1 6.7 4.2 4.9 6.5 6.5 6.5 6.5 6.5 6.8 6.5 7.3 6.7 6.2 7.0 7.3 6.9 5.3 5.1
-1.0 -1.4 -2.1 -2.2 -2.0 -2.0 -2.0 -1.9 -2.0 -2.0 -2.2 -2.5 -2.9 -3.3 -3.6 -4.1 -0.5 3.7 4.4 5.2 4.9 3.8 6.8 7.1 7.1 7.6 6.5 6.8 6.3 6.0 6.5 6.5 6.5 6.5 6.5 6.5 5.9 6.7 6.8 6.9 7.0 6.4 4.9 5.3 5.6
-1.4 -1.9 -2.1 -2.7 -2.5 -2.2 -2.2 -2.1 -2.1 -2.1 -2.3 -2.6 -3.0 -3.3 -3.6 -4.1 2.6 5.6 6.0 3.9 3.3 3.3 6.2 6.5 6.6 6.9 6.0 6.7 5.0 5.6 6.5 6.5 6.5 6.7 6.6 6.5 6.5 7.1 6.4 6.5 6.5 6.5 4.4 3.4 4.7
-2.0 -2.6 -2.9 -2.9 -2.9 -2.7 -2.4 -2.2 -2.3 -2.3 -2.4 -2.7 -3.0 -3.1 -3.2 -0.4 6.5 7.1 2.0 2.1 2.4 3.5 6.3 6.6 6.5 6.1 6.5 6.5 6.5 6.5 6.3 6.4 6.7 6.9 6.7 6.5 6.9 6.5 6.5 5.9 4.9 3.5 4.1 4.5 5.8
-2.6 -3.1 -3.3 -3.3 -3.2 -3.0 -2.7 -2.2 -2.4 -2.6 -2.6 -2.7 -2.8 -2.7 -0.3 4.3 4.9 4.7 2.2 1.9 3.1 5.7 6.1 6.3 6.5 6.5 6.5 6.4 6.5 6.5 6.5 6.3 6.6 6.7 6.4 6.9 6.4 6.2 6.7 6.0 5.9 5.1 5.7 5.2 5.4
-2.7 -3.2 -3.3 -3.5 -3.3 -3.2 -2.9 -2.5 -2.5 -2.8 -2.8 -2.7 -2.5 -2.5 0.8 6.4 6.9 6.5 4.7 4.2 5.7 6.0 6.4 6.7 6.6 7.1 6.1 6.6 6.4 6.2 5.9 6.3 6.5 6.4 6.5 6.5 6.3 5.5 5.9 6.9 7.4 5.4 5.2 6.5 6.4
-3.0 -3.1 -3.3 -3.4 -3.4 -3.3 -2.9 -2.7 -2.6 -2.9 -2.8 -2.6 -2.2 0.6 4.9 3.1 8.1 6.5 6.2 6.0 6.0 6.8 6.5 7.1 7.0 6.2 5.5 6.5 6.9 6.7 6.5 6.5 6.2 6.0 6.5 5.1 6.5 6.5 4.6 5.5 7.4 6.3 5.4 5.8 6.5
-3.3 -3.0 -3.0 -3.6 -3.5 -3.4 -3.1 -3.1 -3.0 -3.0 -2.8 -2.5 -1.8 1.4 3.1 6.1 6.3 6.5 8.0 7.5 7.2 7.0 7.2 6.9 7.1 6.4 6.1 6.0 6.4 6.5 6.5 6.5 6.5 6.4 6.0 5.8 6.5 6.5 4.4 5.1 6.0 4.7 3.6 6.7 7.2
-3.6 -3.4 -3.4 -3.7 -3.6 -3.5 -3.4 -3.3 -3.1 -2.8 -2.4 -2.0 -0.6 1.7 5.9 6.6 7.2 7.0 7.5 7.6 7.0 7.0 7.0 9.0 7.4 5.7 5.6 6.5 6.5 6.5 6.5 6.5 6.5 6.4 6.5 6.5 6.5 6.5 4.6 6.0 5.9 3.9 3.2 5.6 6.9
-3.6 -3.7 -4.1 -3.9 -3.7 -3.8 -3.5 -3.4 -1.9 -2.7 -0.8 2.6 5.0 6.4 4.2 7.0 7.0 7.7 7.2 7.8 7.1 7.0 6.8 6.8 5.2 6.5 6.5 6.5 6.5 6.5 6.5 6.5 6.5 6.5 6.5 6.5 6.5 6.5 5.0 6.2 6.8 5.6 4.1 3.1 5.0
-3.6 -3.8 -4.1 -4.0 -3.7 -3.9 -3.7 -2.1 2.4 4.0 4.4 4.5 4.4 6.5 7.1 6.5 7.7 7.1 7.4 7.2 7.0 6.2 6.5 4.9 6.5 6.5 6.5 6.5 6.5 6.5 6.5 6.5 6.5 6.5 6.5 6.5 6.5 6.5 6.3 5.9 6.6 5.0 3.7 3.1 4.4
-3.8 -3.9 -3.9 -3.9 -3.8 -4.0 -3.8 2.3 5.9 7.3 5.8 3.6 5.0 6.9 6.6 7.0 6.7 7.3 7.4 6.0 6.0 6.5 6.0 6.5 6.5 6.5 6.5 6.5 6.5 6.5 6.5 6.5 6.5 6.5 6.5 6.5 6.5 6.5 6.5 6.2 7.1 5.5 4.1 4.4 3.5
-3.9 -4.3 -4.1 -4.4 -4.2 -4.2 -1.3 1.2 5.2 4.2 5.9 6.5 4.1 6.3 6.6 7.2 6.2 6.2 6.3 6.0 6.2 6.5 6.5 6.5 6.5 6.5 6.5 6.5 6.5 6.5 6.5 6.5 6.5 6.5 6.5 6.5 6.5 6.5 6.5 6.5 7.0 5.1 1.8 2.8 3.1
-4.0 -4.7 -4.4 -4.1 -3.2 2.4 2.4 1.7 3.4 4.7 6.5 6.5 6.5 7.0 7.0 7.0 6.2 7.5 7.0 6.4 6.5 6.5 6.5 6.5 6.4 6.5 6.5 6.5 6.5 6.5 6.5 6.5 6.5 6.5 6.5 6.5 6.5 6.5 6.5 6.5 6.5 6.9 2.7 2.1 2.7
-4.1 -5.1 -4.6 -5.0 -4.0 3.4 5.9 4.5 5.3 6.7 6.5 6.5 6.4 7.6 6.8 5.6 6.0 6.5 7.2 6.2 6.5 6.5 6.5 6.5 6.5 6.5 6.5 6.5 6.5 6.5 6.5 6.5 6.5 6.5 6.5 6.5 6.5 6.5 6.5 6.5 6.5 6.6 5.6 2.6 2.8
-4.2 -4.9 -4.6 -3.6 -3.6 -1.9 2.9 5.5 6.3 6.5 6.5 6.5 6.5 6.5 6.4 5.7 6.2 6.4 6.4 6.3 6.2 6.5 6.5 6.5 5.6 6.5 6.5 6.5 6.5 6.5 6.5 6.5 6.5 6.5 6.5 6.5 6.5 6.5 6.5 6.5 6.5 6.5 6.9 6.5 4.4
-4.3 -5.0 -5.0 -0.0 5.9 6.1 6.1 6.6 6.5 6.5 6.5 6.5 6.5 6.5 6.5 6.5 6.5 6.5 6.5 6.5 6.5 6.5 6.5 6.5 6.5 6.5 6.3 6.5 6.5 6.5 6.5 6.5 6.5 6.5 6.5 6.5 6.5 6.5 6.5 6.5 6.5 6.4 6.6 5.2 6.4
-4.8 -5.6 -4.4 -2.6 1.6 1.9 5.9 6.4 6.5 6.5 6.5 6.5 6.5 6.5 6.5 6.5 6.5 6.5 6.5 6.5 6.5 6.5 6.5 6.5 6.5 6.5 6.5 6.5 6.5 6.5 6.5 6.5 6.5 6.5 6.5 6.5 6.5 6.5 6.5 5.0 5.1 6.1 6.1 5.8 5.7
-5.3 -2.7 0.3 1.6 0.1 2.3 5.5 6.5 6.5 6.5 6.5 6.5 6.5 6.5 6.5 6.5 6.5 6.5 6.5 6.5 6.5 6.5 6.5 6.5 6.5 6.5 6.5 6.5 6.5 6.5 6.5 6.5 6.5 6.5 6.5 6.5 6.5 6.5 6.5 6.5 5.5 6.0 5.9 5.6 4.9
-1.2 5.1 4.2 5.8 7.0 5.8 6.3 6.5 6.5 6.5 6.5 6.5 6.5 6.5 6.5 6.5 6.5 6.5 6.5 6.5 6.5 6.5 6.2 6.5 6.5 6.5 6.5 6.2 6.3 6.5 6.5 6.5 6.5 6.5 6.5 6.5 6.5 6.5 6.5 6.5 6.5 6.2 5.2 5.2 5.5
0.8 6.2 7.1 8.3 7.7 5.9 6.5 6.5 6.5 6.8 6.7 6.5 6.5 6.5 6.5 6.5 6.5 6.5 6.5 6.5 6.5 6.5 6.5 6.5 6.5 6.5 6.5 6.5 6.5 6.5 6.5 6.5 6.5 6.5 6.5 6.5 6.5 6.5 6.5 6.5 6.5 6.0 5.6 5.2 5.4
4.7 6.5 8.3 8.7 5.9 5.3 6.5 6.5 4.0 6.5 6.8 6.4 6.5 6.5 6.5 6.5 6.5 6.5 6.5 6.5 6.2 6.1 6.5 6.5 6.5 6.5 6.5 6.5 6.5 6.5 6.5 6.5 6.5 6.5 6.5 6.5 6.5 6.5 6.5 6.3 5.7 6.0 5.6 5.3 5.5
3.7 6.3 8.1 8.2 6.5 6.5 6.4 6.5 6.5 6.5 6.5 6.5 6.5 6.5 6.5 6.5 6.5 6.5 6.5 6.4 6.3 6.5 6.5 6.5 6.5 6.5 6.5 6.5 6.5 6.5 6.5 6.5 6.5 6.5 6.5 6.5 6.5 6.5 6.4 5.9 5.9 5.5 5.2 5.2 5.6
2.8 6.5 5.9 6.2 6.3 6.5 6.5 6.5 6.5 6.6 6.5 6.3 6.5 6.2 6.5 6.5 6.5 6.5 6.5 6.4 6.2 6.5 3.1 5.1 6.5 6.5 6.5 6.5 6.5 6.5 6.5 6.5 6.5 6.5 6.5 6.5 6.5 6.5 6.5 6.5 5.7 5.1 5.2 5.3 5.3
6.0 6.3 6.6 6.5 6.3 6.5 6.5 6.5 6.5 6.5 6.3 5.3 6.5 6.5 6.5 6.5 6.5 6.5 6.5 6.5 6.1 3.8 6.4 6.5 6.5 6.5 6.5 6.5 6.5 6.5 6.5 6.5 6.5 6.5 6.5 6.5 6.5 6.5 6.5 6.5 5.8 5.9 5.5 5.7 5.6
6.3 5.3 6.0 6.4 6.5 6.5 6.5 6.5 6.5 6.5 6.5 6.5 6.5 6.5 6.5 6.5 6.5 6.5 6.5 6.5 6.5 6.5 6.5 6.5 6.5 6.5 6.5 6.5 6.5 6.5 6.5 6.5 6.5 6.5 6.5 6.5 6.5 6.5 4.7 4.8 5.6 5.5 5.7 5.6 5.9
6.9 7.6 6.2 3.0 6.5 6.5 6.5 6.5 6.5 6.5 6.4 6.5 6.5 6.5 6.5 6.5 6.7 6.1 5.0 4.8 6.0 6.5 6.5 6.5 6.5 6.5 6.5 6.5 6.5 6.5 6.5 6.5 6.5 6.5 6.5 6.5 6.5 6.3 6.4 5.9 5.3 5.6 5.5 5.6 6.0
Wind_Speed
12 11 10 10 10 10 10 11 11 11 12 13 14 15 16 19 22 4 6 8 6 7 4 8 13 16 17 3 3 4 4 3 4 6 3 2 4 2 11 10 10 5 8 2 3
13 12 11 10 10 10 10 10 11 11 12 13 14 15 16 17 4 9 14 11 6 2 4 9 15 17 11 10 5 1 4 8 13 4 6 5 3 4 11 15 9 14 17 13 8
13 13 11 11 10 10 10 10 11 11 12 13 13 14 15 13 4 8 14 20 9 6 6 9 16 19 6 5 10 4 5 7 2 3 6 4 4 1 12 10 16 21 21 22 13
14 14 12 11 11 10 10 10 11 11 12 12 13 14 14 4 3 2 8 8 6 6 8 9 10 10 3 6 4 4 5 3 2 1 2 6 3 4 4 6 22 21 20 20 17
15 14 13 12 11 10 10 10 11 11 11 12 12 13 5 4 9 8 9 7 4 4 6 11 15 14 9 8 2 3 5 7 2 4 5 2 8 4 3 19 17 21 19 16 14
16 14 13 12 11 11 10 11 11 11 11 11 11 12 3 6 9 12 9 7 8 8 9 14 12 13 7 5 5 1 9 8 9 4 4 6 3 6 4 20 19 20 16 18 18
17 15 13 12 12 11 11 11 11 12 11 10 9 5 5 16 2 10 12 8 8 10 12 14 11 7 10 9 3 3 4 7 9 6 4 6 7 4 3 1 19 14 11 8 10
18 15 14 13 12 11 11 11 12 13 12 9 7 5 8 10 21 11 7 10 11 11 10 11 8 7 7 10 10 2 4 5 8 7 6 7 8 10 8 5 15 14 8 12 20
18 16 15 12 11 11 11 11 13 13 11 9 4 4 8 5 6 11 9 10 10 9 8 10 6 6 10 7 5 3 5 5 10 15 9 4 8 13 8 10 13 12 9 7 16
20 18 16 11 10 10 10 10 8 9 6 8 8 4 7 13 8 9 10 11 7 7 7 5 3 6 6 4 5 5 6 7 8 5 8 8 13 14 22 20 15 13 12 13 8
21 18 14 10 9 8 7 3 1 2 7 11 10 6 8 12 10 9 11 11 8 7 7 10 4 9 16 16 7 7 10 11 18 2 14 8 11 15 11 14 8 15 13 10 12
21 18 13 9 7 5 4 5 10 8 6 23 20 18 20 10 9 13 14 8 7 8 10 6 10 18 16 6 8 8 10 13 5 10 9 8 8 12 10 8 19 19 1 8 14
23 17 13 8 3 2 6 12 11 18 4 6 13 9 13 5 12 13 12 10 7 9 10 11 14 19 13 6 11 8 7 2 4 7 6 6 9 13 16 12 20 10 15 14 12
23 21 11 4 1 4 6 13 13 11 4 3 9 7 10 7 6 11 11 9 7 12 14 10 17 10 3 5 7 7 6 7 3 2 3 2 4 6 5 11 16 16 11 9 9
24 20 9 13 7 4 7 13 13 3 4 15 10 8 10 11 7 13 13 11 13 13 6 12 6 8 6 8 9 8 10 3 2 12 7 7 5 8 3 7 13 17 14 10 14
24 18 4 3 4 12 15 12 4 2 7 9 10 12 11 10 12 14 10 10 9 11 12 10 9 6 8 6 8 11 4 8 6 5 2 5 2 6 6 8 14 17 19 18 15
26 13 8 6 3 9 10 1 2 5 12 12 12 16 11 10 15 15 13 11 9 4 7 10 9 8 5 7 9 5 2 2 5 6 2 11 1 12 7 8 9 16 18 17 20
27 6 11 8 13 11 5 2 5 10 8 13 13 15 13 13 11 16 12 10 12 12 5 7 7 11 7 6 6 7 8 5 5 6 8 7 5 2 4 9 8 16 18 14 15
25 3 4 7 21 4 2 5 4 2 6 6 14 12 11 11 8 9 10 10 12 15 9 2 6 9 8 7 8 10 4 9 8 4 4 6 5 5 17 10 9 11 14 8 6
3 3 5 9 13 4 3 6 6 5 4 8 9 11 12 15 8 8 10 14 14 16 14 8 3 5 15 8 8 7 5 5 4 4 2 5 4 4 18 6 8 8 10 9 8
3 3 5 15 9 3 5 6 9 13 16 17 8 9 13 10 11 14 13 11 22 17 16 6 3 9 2 5 7 4 5 4 6 5 4 5 5 2 14 4 9 10 10 9 9
4 3 10 11 4 4 7 6 7 23 19 5 8 10 8 12 9 11 13 8 16 7 3 4 3 2 6 5 6 3 8 2 4 4 4 6 2 8 19 14 11 11 9 8 9
4 3 7 8 4 7 10 17 20 21 12 6 5 9 5 8 1 6 7 5 6 7 4 4 2 1 6 10 6 6 11 16 15 2 4 5 6 14 12 7 11 11 9 8 8
2 3 1 4 7 12 13 13 16 11 7 11 7 10 6 7 3 4 4 3 10 4 5 4 2 4 5 9 4 9 18 14 7 4 3 5 8 12 11 12 11 9 8 7 8
4 1 3 3 5 11 12 14 15 14 5 7 7 7 7 4 7 7 11 2 7 1 3 3 1 5 4 10 7 5 13 7 11 13 4 7 10 11 7 8 7 11 9 7 8
4 3 4 7 13 13 13 10 11 11 6 7 9 10 11 8 6 6 1 8 4 3 3 2 1 5 3 3 12 8 12 4 3 18 12 19 15 12 11 6 7 9 10 8 7
5 5 3 6 9 9 7 16 8 9 4 8 18 7 10 6 22 24 13 7 7 3 4 2 3 4 3 8 9 3 4 4 2 12 16 16 10 11 9 9 7 7 8 7 6
Wind_Direction
334 331 324 316 312 309 308 311 314 314 315 314 317 321 324 325 312 199 246 240 200 243 316 287 285 265 247 180 108 122 70 351 274 243 206 279 356 143 125 117 76 85 117 274 268
334 329 324 316 310 305 303 304 308 311 313 314 318 323 325 328 286 254 239 231 229 204 273 279 285 293 261 155 10 47 122 211 221 42 328 192 89 208 117 112 85 92 76 61 255
333 328 322 316 309 303 299 298 303 306 310 314 318 322 323 320 279 240 231 209 204 219 257 281 275 283 300 243 192 223 178 213 345 73 279 315 107 147 126 144 156 144 145 164 207
334 328 320 313 309 303 297 294 297 303 309 312 318 321 317 272 225 112 152 172 207 265 273 283 286 289 293 319 268 122 281 309 179 197 301 323 353 16 200 168 152 153 158 165 176
335 328 319 312 307 301 294 290 292 301 306 310 318 325 314 225 250 152 163 164 185 218 249 267 274 289 256 249 22 26 340 297 245 236 256 280 53 289 124 124 133 143 155 167 174
334 329 319 311 304 299 292 292 289 296 301 306 315 318 239 253 235 177 173 157 226 202 252 257 270 304 297 307 131 271 288 347 324 247 314 86 348 21 353 136 146 152 171 152 176
336 328 321 312 302 296 291 291 291 291 294 299 310 294 260 240 15 186 181 193 211 226 237 262 278 352 327 318 292 305 353 292 279 284 176 114 356 298 275 3 141 137 139 164 203
337 330 321 312 301 294 293 291 289 287 289 288 294 277 252 265 252 294 200 216 215 234 247 273 347 335 290 291 302 253 350 356 295 279 242 128 277 248 252 278 136 149 119 136 176
339 331 321 311 301 292 290 288 286 284 276 272 246 229 262 228 216 249 222 233 207 228 252 274 355 287 307 291 325 18 248 263 298 272 251 57 333 345 207 205 146 139 157 90 146
340 333 322 311 300 299 295 287 286 305 234 227 258 273 260 220 191 209 255 252 195 218 250 236 243 262 275 262 218 181 289 271 261 277 63 53 22 18 38 21 125 90 58 42 299
340 335 324 310 299 307 307 227 113 238 239 200 193 233 283 212 185 194 228 240 229 197 221 238 203 236 244 247 180 207 226 238 271 34 64 62 26 354 44 40 46 66 56 12 329
337 334 329 312 298 305 284 241 237 13 235 224 252 248 260 231 180 193 215 198 228 204 222 259 224 239 239 156 233 238 238 263 31 99 95 45 1 341 2 28 95 89 84 198 239
338 331 326 318 299 208 244 246 300 340 297 232 209 227 250 175 182 206 178 202 211 233 228 217 241 239 247 195 222 249 238 260 161 123 95 87 346 339 325 77 122 154 182 189 214
336 327 297 291 22 195 232 247 260 263 296 235 164 233 237 185 255 187 195 193 233 215 234 233 255 273 137 207 239 247 305 291 360 355 46 33 286 309 322 315 154 195 178 199 220
337 333 267 220 325 234 234 189 227 259 289 147 171 194 188 180 170 213 188 219 232 240 213 254 249 266 219 220 241 231 233 330 317 111 114 346 85 269 36 292 160 200 191 205 218
336 331 214 189 231 246 287 266 191 277 242 179 166 174 176 193 241 178 163 212 250 263 280 254 285 253 221 241 264 266 17 327 288 158 125 196 19 287 189 202 163 188 191 193 194
332 314 207 294 205 311 254 223 216 235 131 154 165 162 183 203 235 164 177 195 223 220 270 287 256 277 190 225 254 205 206 292 27 21 26 117 175 250 82 110 138 145 179 190 173
329 294 228 245 295 326 284 227 250 276 290 155 164 173 190 196 225 172 169 192 224 244 235 223 267 222 213 217 231 228 189 167 170 174 145 207 248 2 41 82 136 141 156 156 149
320 192 247 232 238 238 305 208 234 60 296 305 161 174 206 205 165 156 186 207 209 224 222 241 293 181 206 194 201 263 302 240 133 30 68 148 316 310 333 79 50 67 67 86 95
284 210 223 202 194 200 232 245 249 145 20 294 225 187 203 208 141 158 185 207 225 214 213 229 255 205 206 200 237 188 260 353 343 116 151 112 53 108 324 114 83 59 65 61 54
243 244 213 164 158 212 222 232 262 269 235 251 217 193 226 178 168 189 194 218 210 212 218 147 184 280 168 164 232 299 270 269 114 122 133 159 99 101 256 117 88 71 50 44 41
304 258 144 151 175 210 235 250 262 276 287 270 301 289 225 178 176 197 201 245 195 113 158 172 178 233 270 318 12 358 332 334 115 204 194 128 65 83 269 99 102 81 65 40 34
310 285 156 183 232 235 238 244 252 268 266 317 260 313 312 336 280 207 85 51 32 65 104 323 299 319 323 358 355 12 344 336 339 60 178 112 172 204 242 148 118 106 100 82 51
263 301 186 204 264 288 292 291 279 228 280 295 283 248 44 270 32 32 87 137 70 88 197 128 351 91 149 195 205 300 319 325 353 329 162 175 142 186 220 120 98 94 95 92 91
219 45 343 291 294 252 263 279 300 294 195 283 337 334 319 102 25 32 4 7 99 268 37 62 34 11 119 168 177 222 297 320 346 304 36 141 126 138 127 102 127 118 111 99 84
15 17 333 289 275 283 231 262 296 303 46 348 321 20 56 115 146 77 272 1 237 271 176 261 327 23 359 259 192 198 236 242 279 295 116 104 113 149 172 171 101 140 138 125 118
347 344 283 272 318 1 329 328 252 126 201 351 329 58 81 71 154 180 172 238 310 60 21 48 53 35 310 341 338 305 213 227 39 54 117 111 123 104 84 78 57 351 125 134 111